OPS 4682 DEB, 18271

Orbit data source: Space-Track

OPS 4682 DEB, 18271 is space debris in LEO originally from a launch on Sat, 03 Apr 1965 UTC launched from the Air Force Western Test Range (AFWTR). Debris objects in space refer to the collection of defunct objects orbiting the Earth. Examples of debris include non-operational satellites, rocket bodies, and fragments generated from explosions, collisions, or faulty payload assembly.

Loading next visibility...
Identifier
18271, 1965-027AA
Orbit
LEO
Country
Flag of USUS
Related business
Manufacturer
Unknown
Mission
Spacecraft
Bus & Motor
Unknown
Mass
Unknown
Launch date (UTC)
1965-04-03 (61 years ago)
Launch vehicle
Unknown
Launch site
Air Force Western Test Range (AFWTR)
Object type
Payload
Rocket body
Debris
Shape & HBR
Unknown shape, 0.1 m
Radar Cross Section
Medium (>0.1 m² and <1 m²)

Expand to show TLE details & history
Last TLE update: 14 hours ago

TLE from 14 hours ago
0 OPS 4682 DEB
1 18271U 65027AA  26263.56178574 -.00000136  00000-0 -49208-3 0  9999
2 18271  90.2506   9.6534 0032945 221.7134 151.8378 12.97713998901765
Epoch: 2026-09-20T13:28Z
TLE epoch observation values (Epoch: 2026-09-20T13:28:58.287Z)
Latitude
13.69563°
Longitude
167.89558°
Altitude
1,295.445 km
Speed
7.199 km/s
True Right ascension
00h 38m 22s
True Declination
13° 37' 20"
Sunlit
Object was in full shadow at epoch
Visualization orbit readout
Latitude
Unknown
Longitude
Unknown
Altitude
Unknown
Speed
Unknown
Apparent Right ascension
Unknown
Apparent Declination
Unknown
Sunlit
N/A
Visualization observer readout
Local Sidereal Time
20:49:37
Azimuth
Unknown
Elevation
Unknown
Doppler factor
Unknown
Orbital elements
Apogee altitude
1,293.378 km
Perigee altitude
1,242.996 km
Semi-major axis
7,646.324 km
Eccentricity
0.00329
Inclination
90.2506°
RAAN
9.6534°
Arg. of periapsis
221.7134°
True anomaly
152.01533°
Mean anomaly
151.8378°
Eccentric anomaly
151.92663°
Mean motion
3.24612 °/min
Orbital period
110.9 mins
BSTAR
-0.00049208
Loading maneuver chart data...
Computing Atmospheric mass density...
Loading historical data...
Loading historical data...
Loading historical data...
Loading historical data...
Loading historical data...
Loading historical data...
Loading historical data...

Documentation

Showing up to 5 results
|